OE4EXE Weather Reports


time (UTC)temp
F
wind
direction
speed
knots
gust
knots
rain 1hr
in
rain 24hr
in
rain mn
in
humidity
%
barometer
mb
20260507034803 58 129 1.7 5.2 0.00 0.00 0.00 73 1010.4
20260507034603 58 136 1.7 5.2 0.00 0.00 0.00 73 1010.5
20260507034404 58 133 2.6 5.2 0.00 0.00 0.00 73 1010.5
20260507034203 58 132 2.6 5.2 0.00 0.00 0.00 73 1010.5
20260507034003 58 127 2.6 5.2 0.00 0.00 0.00 73 1010.4
20260507033803 58 116 2.6 5.2 0.00 0.00 0.00 72 1010.4
20260507033603 58 101 2.6 4.3 0.00 0.00 0.00 72 1010.4
20260507033403 58 87 2.6 4.3 0.00 0.00 0.00 72 1010.2
20260507033203 58 88 2.6 4.3 0.00 0.00 0.00 73 1010.4
20260507032603 58 109 1.7 4.3 0.00 0.00 0.00 73 1010.3
20260507032003 58 115 1.7 3.5 0.00 0.00 0.00 73 1010.3
20260507031803 58 108 1.7 3.5 0.00 0.00 0.00 73 1010.2
20260507031603 58 95 1.7 3.5 0.00 0.00 0.00 73 1010.3
20260507031403 58 86 1.7 5.2 0.00 0.00 0.00 73 1010.2
20260507031203 58 90 1.7 5.2 0.00 0.00 0.00 73 1010.0
20260507031003 58 93 1.7 5.2 0.00 0.00 0.00 73 1010.1
20260507030603 58 104 1.7 5.2 0.00 0.00 0.00 73 1010.0
20260507030403 58 107 1.7 5.2 0.00 0.00 0.00 73 1010.2
20260507030203 58 105 1.7 6.1 0.00 0.00 0.00 73 1010.2
20260507030003 58 126 1.7 6.1 0.00 0.00 0.00 73 1010.3
20260507025803 58 112 2.6 6.1 0.00 0.00 0.00 73 1010.3
20260507025603 59 108 1.7 6.1 0.00 0.00 0.00 73 1010.3
20260507025403 59 118 1.7 6.1 0.00 0.00 0.00 72 1010.3
20260507025203 59 132 2.6 6.1 0.00 0.00 0.00 72 1010.4
20260507025003 59 112 2.6 6.1 0.00 0.00 0.00 72 1010.5
20260507024803 59 108 2.6 6.1 0.00 0.00 0.00 72 1010.2
20260507024603 59 101 2.6 6.1 0.00 0.00 0.00 71 1010.3
20260507024403 59 97 3.5 6.1 0.00 0.00 0.00 71 1010.1
20260507024203 59 86 2.6 5.2 0.00 0.00 0.00 71 1010.1
20260507024003 59 72 2.6 5.2 0.00 0.00 0.00 71 1010.2
20260507023803 59 66 1.7 5.2 0.00 0.00 0.00 71 1010.2
20260507023403 60 67 0.9 4.3 0.00 0.00 0.00 71 1010.2
20260507023203 60 63 1.7 4.3 0.00 0.00 0.00 70 1010.1
20260507023003 60 55 1.7 4.3 0.00 0.00 0.00 70 1010.0
20260507022803 60 44 1.7 4.3 0.00 0.00 0.00 70 1010.0
20260507022603 60 46 1.7 4.3 0.00 0.00 0.00 70 1010.1
20260507022403 60 45 1.7 4.3 0.00 0.00 0.00 69 1010.1
20260507022203 60 41 0.9 4.3 0.00 0.00 0.00 69 1010.0
20260507022003 60 39 0.9 2.6 0.00 0.00 0.00 69 1010.1
20260507021803 60 34 0.9 2.6 0.00 0.00 0.00 69 1009.9
20260507021603 60 23 0.9 2.6 0.00 0.00 0.00 69 1009.9
20260507021404 60 8 0.9 1.7 0.00 0.00 0.00 69 1009.9
20260507020803 60 332 0.9 3.5 0.00 0.00 0.00 69 1010.1
20260507020603 60 318 0.9 3.5 0.00 0.00 0.00 69 1010.0
20260507020203 60 310 0.9 3.5 0.00 0.00 0.00 68 1010.0
20260507020003 61 345 0.9 3.5 0.00 0.00 0.00 68 1010.0
20260507015603 60 61 0.0 1.7 0.00 0.00 0.00 69 1009.8
20260507015403 60 64 0.0 1.7 0.00 0.00 0.00 69 1009.8
20260507015203 60 315 0.0 3.5 0.00 0.00 0.00 69 1009.9
20260507015003 60 260 0.9 4.3 0.00 0.00 0.00 69 1009.8
20260507014803 60 270 1.7 4.3 0.00 0.00 0.00 69 1009.7
20260507014603 60 277 1.7 5.2 0.00 0.00 0.00 70 1010.0
20260507014403 60 284 2.6 5.2 0.00 0.00 0.00 70 1009.8
20260507014203 59 289 3.5 7.0 0.00 0.00 0.00 70 1009.8
20260507014003 59 297 4.3 7.0 0.00 0.00 0.00 70 1009.7
20260507013603 59 301 5.2 7.0 0.00 0.00 0.00 70 1009.8
20260507013203 60 299 5.2 7.0 0.00 0.00 0.00 69 1009.9
20260507013003 60 301 5.2 7.0 0.00 0.00 0.00 69 1009.7
20260507012803 60 300 4.3 7.8 0.00 0.00 0.00 69 1009.7
20260507012603 60 303 4.3 7.8 0.00 0.00 0.00 68 1009.7
20260507012403 60 307 4.3 7.8 0.00 0.00 0.00 68 1009.6
20260507012203 61 309 5.2 8.7 0.00 0.00 0.00 67 1009.7
20260507011803 61 280 4.3 8.7 0.00 0.00 0.00 66 1009.8
20260507011603 61 266 4.3 10.4 0.00 0.00 0.00 66 1009.6
20260507011403 61 258 4.3 10.4 0.00 0.00 0.00 66 1009.7
20260507011203 61 251 4.3 10.4 0.00 0.00 0.00 66 1009.6
20260507011003 61 252 4.3 10.4 0.00 0.00 0.00 66 1009.3
20260507010803 61 249 4.3 10.4 0.00 0.00 0.00 66 1009.5
20260507010603 61 247 4.3 10.4 0.00 0.00 0.00 66 1009.3
20260507010403 61 245 5.2 9.6 0.00 0.00 0.00 66 1009.5
20260507010203 61 236 5.2 9.6 0.00 0.00 0.00 66 1009.3
20260507010003 61 231 5.2 11.3 0.00 0.00 0.00 66 1009.3
20260507005803 61 232 5.2 11.3 0.00 0.00 0.00 66 1009.2
20260507005603 61 229 5.2 11.3 0.00 0.00 0.00 65 1009.3
20260507005403 61 230 5.2 11.3 0.00 0.00 0.00 65 1009.3
20260507004803 62 250 6.1 13.9 0.00 0.00 0.00 65 1009.2
20260507004403 62 245 7.0 13.9 0.00 0.00 0.00 65 1009.3
20260507004203 62 241 6.1 13.9 0.00 0.00 0.00 65 1009.2
20260507003803 62 230 7.0 12.2 0.00 0.00 0.00 65 1009.0
20260507003403 62 231 7.0 12.2 0.00 0.00 0.00 65 1009.3
20260507003203 62 224 7.0 12.2 0.00 0.00 0.00 65 1009.2
20260507003003 61 225 7.0 12.2 0.00 0.00 0.00 65 1009.1
20260507002803 61 228 6.1 12.2 0.00 0.00 0.00 66 1009.4
20260507002603 61 230 6.1 12.2 0.00 0.00 0.00 65 1009.3
20260507002403 61 232 6.1 12.2 0.00 0.00 0.00 65 1009.3
20260507002003 62 227 6.1 12.2 0.00 0.00 0.00 65 1009.1
20260507001803 61 233 6.1 12.2 0.00 0.00 0.00 65 1009.1
20260507001603 61 234 5.2 10.4 0.00 0.00 0.00 65 1009.3
20260507001403 61 236 5.2 10.4 0.00 0.00 0.00 66 1009.2
20260507001203 61 241 5.2 10.4 0.00 0.00 0.00 65 1009.3
20260507001003 61 245 6.1 10.4 0.00 0.00 0.00 65 1009.3
20260507000603 62 240 6.1 11.3 0.00 0.00 0.00 65 1009.3
20260507000405 62 236 7.0 11.3 0.00 0.00 0.00 65 1009.3
20260507000205 62 233 7.0 11.3 0.00 0.00 0.00 65 1009.3
20260507000003 62 236 6.1 11.3 0.00 0.00 0.00 65 1009.0
20260506235603 62 237 5.2 10.4 0.00 0.00 0.00 65 1009.2
20260506235003 62 246 5.2 10.4 0.00 0.00 0.00 65 1009.2
20260506234603 62 256 4.3 9.6 0.00 0.00 0.00 64 1009.3
20260506234403 62 253 4.3 9.6 0.00 0.00 0.00 64 1009.1
20260506234203 62 254 4.3 9.6 0.00 0.00 0.00 64 1009.3
20260506234003 62 252 4.3 9.6 0.00 0.00 0.00 64 1009.3
20260506233803 62 246 4.3 10.4 0.00 0.00 0.00 64 1009.2
20260506233603 62 247 5.2 11.3 0.00 0.00 0.00 64 1009.3
20260506233403 62 246 5.2 11.3 0.00 0.00 0.00 64 1009.2
20260506233203 62 246 5.2 11.3 0.00 0.00 0.00 64 1009.1
20260506233003 62 243 6.1 11.3 0.00 0.00 0.00 64 1009.2
20260506232603 62 245 6.1 11.3 0.00 0.00 0.00 64 1009.3
20260506232003 62 266 4.3 9.6 0.00 0.00 0.00 64 1009.2
20260506231803 62 271 4.3 9.6 0.00 0.00 0.00 64 1009.3
20260506231603 62 271 4.3 10.4 0.00 0.00 0.00 64 1009.4
20260506231403 62 264 4.3 10.4 0.00 0.00 0.00 64 1009.3
20260506231203 62 259 4.3 10.4 0.00 0.00 0.00 64 1009.1
20260506231003 62 249 5.2 10.4 0.00 0.00 0.00 64 1009.2
20260506230403 62 236 4.3 9.6 0.00 0.00 0.00 64 1009.2
20260506230203 62 234 4.3 9.6 0.00 0.00 0.00 65 1009.3
20260506230003 62 239 3.5 7.0 0.00 0.00 0.00 65 1009.3
20260506225803 62 249 2.6 4.3 0.00 0.00 0.00 65 1009.2
20260506225603 62 259 2.6 4.3 0.00 0.00 0.00 65 1009.3
20260506225403 62 266 1.7 4.3 0.00 0.00 0.00 65 1009.2
20260506225203 62 264 2.6 4.3 0.00 0.00 0.00 65 1009.1
20260506224803 62 267 2.6 6.1 0.00 0.00 0.00 65 1009.2
20260506224603 62 250 2.6 6.1 0.00 0.00 0.00 65 1009.1
20260506224403 62 243 2.6 6.1 0.00 0.00 0.00 64 1009.1
20260506224203 62 239 3.5 7.8 0.00 0.00 0.00 64 1009.1
20260506224003 62 239 3.5 7.8 0.00 0.00 0.00 64 1009.0
20260506223803 62 236 3.5 7.8 0.00 0.00 0.00 64 1008.9
20260506223603 62 235 4.3 9.6 0.00 0.00 0.00 64 1009.2
20260506223403 62 235 4.3 9.6 0.00 0.00 0.00 64 1009.0
20260506223203 63 237 4.3 9.6 0.00 0.00 0.00 64 1009.0
20260506223003 63 233 5.2 11.3 0.00 0.00 0.00 64 1008.8
20260506222603 63 228 7.0 12.2 0.00 0.00 0.00 63 1008.8
20260506222403 63 226 7.0 12.2 0.00 0.00 0.00 63 1008.8
20260506222203 63 220 7.0 12.2 0.00 0.00 0.00 63 1008.8
20260506222003 63 215 7.8 13.0 0.00 0.00 0.00 63 1008.6
20260506221803 63 216 7.8 13.0 0.00 0.00 0.00 63 1008.5
20260506221603 63 211 7.8 13.9 0.00 0.00 0.00 63 1008.5
20260506221403 63 209 8.7 16.5 0.00 0.00 0.00 63 1008.5
20260506221203 63 216 8.7 16.5 0.00 0.00 0.00 63 1008.5
20260506221003 63 220 7.8 16.5 0.00 0.00 0.00 63 1008.4
20260506220803 63 216 7.8 16.5 0.00 0.00 0.00 63 1008.4
20260506220603 63 226 7.8 16.5 0.00 0.00 0.00 62 1008.6
20260506220203 64 228 7.8 14.8 0.00 0.00 0.00 62 1008.5
20260506220003 64 231 8.7 14.8 0.00 0.00 0.00 62 1008.5
20260506215803 64 234 7.8 14.8 0.00 0.00 0.00 62 1008.4
20260506215603 64 232 7.8 13.9 0.00 0.00 0.00 62 1008.8
20260506215403 64 231 8.7 13.9 0.00 0.00 0.00 62 1008.4
20260506215003 64 217 8.7 13.9 0.00 0.00 0.00 62 1008.5
20260506214803 64 217 7.8 13.9 0.00 0.00 0.00 62 1008.4
20260506214603 64 218 7.8 14.8 0.00 0.00 0.00 62 1008.6
20260506214203 64 226 7.8 14.8 0.00 0.00 0.00 62 1008.5
20260506214003 64 229 7.8 14.8 0.00 0.00 0.00 61 1008.5
20260506213803 64 230 7.8 14.8 0.00 0.00 0.00 61 1008.6
20260506213603 64 228 7.8 16.5 0.00 0.00 0.00 61 1008.4
20260506213403 64 230 7.8 16.5 0.00 0.00 0.00 61 1008.3
20260506213203 64 231 7.0 16.5 0.00 0.00 0.00 61 1008.3
20260506213003 64 230 7.0 16.5 0.00 0.00 0.00 61 1008.4
20260506212803 64 225 7.0 16.5 0.00 0.00 0.00 61 1008.4
20260506212603 64 222 7.8 16.5 0.00 0.00 0.00 61 1008.5
20260506212403 64 217 7.8 14.8 0.00 0.00 0.00 61 1008.4
20260506212203 64 214 7.8 15.6 0.00 0.00 0.00 61 1008.3
20260506212003 64 209 7.8 15.6 0.00 0.00 0.00 61 1008.2
20260506211803 64 215 8.7 15.6 0.00 0.00 0.00 61 1008.3
20260506211603 65 216 8.7 16.5 0.00 0.00 0.00 61 1008.4
20260506211203 65 221 9.6 16.5 0.00 0.00 0.00 60 1008.2
20260506211003 65 227 8.7 16.5 0.00 0.00 0.00 60 1008.1
20260506210403 65 222 8.7 16.5 0.00 0.00 0.00 60 1008.2
20260506210203 65 221 8.7 16.5 0.00 0.00 0.00 60 1008.1
20260506210003 65 219 9.6 16.5 0.00 0.00 0.00 60 1008.2
20260506205803 65 222 8.7 16.5 0.00 0.00 0.00 60 1008.2
20260506205403 65 227 9.6 15.6 0.00 0.00 0.00 60 1008.1
20260506205203 65 223 9.6 15.6 0.00 0.00 0.00 60 1008.3
20260506205004 65 222 8.7 15.6 0.00 0.00 0.00 60 1008.3
20260506204603 65 223 8.7 18.2 0.00 0.00 0.00 60 1008.0
20260506204403 65 217 8.7 18.2 0.00 0.00 0.00 60 1008.0
20260506204003 65 218 9.6 18.2 0.00 0.00 0.00 60 1008.1
20260506203803 65 215 9.6 18.2 0.00 0.00 0.00 60 1008.2
20260506203603 65 220 10.4 18.2 0.00 0.00 0.00 59 1008.1
20260506203403 65 227 10.4 18.2 0.00 0.00 0.00 60 1008.2
20260506203203 65 230 10.4 18.2 0.00 0.00 0.00 60 1008.2
20260506202803 65 227 9.6 18.2 0.00 0.00 0.00 60 1008.3
20260506202603 65 225 8.7 18.2 0.00 0.00 0.00 60 1008.4
20260506202403 65 217 8.7 16.5 0.00 0.00 0.00 60 1008.5
20260506202003 65 222 7.8 14.8 0.00 0.00 0.00 60 1008.4
20260506201803 65 222 7.8 15.6 0.00 0.00 0.00 59 1008.2
20260506201403 65 222 8.7 15.6 0.00 0.00 0.00 59 1008.2
20260506201203 66 220 8.7 17.4 0.00 0.00 0.00 59 1008.3
20260506201003 66 219 9.6 17.4 0.00 0.00 0.00 59 1008.2
20260506200803 66 218 8.7 17.4 0.00 0.00 0.00 59 1008.3
20260506200603 66 223 7.8 17.4 0.00 0.00 0.00 59 1008.4
20260506200403 66 221 7.8 17.4 0.00 0.00 0.00 59 1008.6
20260506200203 66 221 7.8 17.4 0.00 0.00 0.00 59 1008.5
20260506200003 66 226 7.0 16.5 0.00 0.00 0.00 59 1008.3
20260506195603 66 228 8.7 16.5 0.00 0.00 0.00 58 1008.5
20260506195403 66 232 7.8 16.5 0.00 0.00 0.00 58 1008.3
20260506195203 66 235 7.8 16.5 0.00 0.00 0.00 58 1008.5
20260506195003 66 234 7.8 16.5 0.00 0.00 0.00 58 1008.4
20260506194803 66 233 7.8 14.8 0.00 0.00 0.00 58 1008.3
20260506194603 66 226 7.8 15.6 0.00 0.00 0.00 58 1008.5
20260506194403 66 222 8.7 15.6 0.00 0.00 0.00 58 1008.4
20260506194203 66 216 8.7 15.6 0.00 0.00 0.00 57 1008.5
20260506193603 66 214 8.7 15.6 0.00 0.00 0.00 57 1008.3
20260506193403 66 213 8.7 14.8 0.00 0.00 0.00 57 1008.4
20260506193203 66 216 7.8 14.8 0.00 0.00 0.00 57 1008.4
20260506192803 66 214 7.0 13.9 0.00 0.00 0.00 56 1008.3
20260506192403 67 220 5.2 13.0 0.00 0.00 0.00 56 1008.5
20260506192203 66 222 4.3 12.2 0.00 0.00 0.00 57 1008.3
20260506192003 66 228 4.3 10.4 0.00 0.00 0.00 57 1008.4
20260506191803 66 229 3.5 9.6 0.00 0.00 0.00 57 1008.1
20260506191603 67 229 4.3 9.6 0.00 0.00 0.00 56 1008.2
20260506191403 67 228 4.3 13.0 0.00 0.00 0.00 56 1008.0
20260506191203 67 227 5.2 13.0 0.00 0.00 0.00 55 1008.3
20260506190803 67 236 6.1 13.0 0.00 0.00 0.00 55 1007.8
20260506190603 67 230 6.1 13.0 0.00 0.00 0.00 55 1008.2
20260506190403 67 229 6.1 13.0 0.00 0.00 0.00 55 1008.1
20260506190203 67 229 6.1 12.2 0.00 0.00 0.00 55 1008.0
20260506190003 67 225 6.1 11.3 0.00 0.00 0.00 55 1008.0
20260506185803 67 220 6.1 11.3 0.00 0.00 0.00 54 1007.8
20260506185603 67 231 6.1 10.4 0.00 0.00 0.00 54 1007.7
20260506185403 67 244 6.1 13.0 0.00 0.00 0.00 54 1007.9
20260506185003 67 245 6.1 13.9 0.00 0.00 0.00 54 1007.6
20260506184803 68 242 7.0 13.9 0.00 0.00 0.00 54 1007.8
20260506184403 68 232 7.0 13.9 0.00 0.00 0.00 53 1007.8
20260506184003 68 236 7.0 13.9 0.00 0.00 0.00 53 1007.5
20260506183603 68 236 7.8 13.9 0.00 0.00 0.00 53 1007.3
20260506183403 68 232 7.0 15.6 0.00 0.00 0.00 53 1007.3
20260506183203 68 234 7.8 15.6 0.00 0.00 0.00 53 1007.3
20260506183003 68 232 7.8 15.6 0.00 0.00 0.00 53 1007.3
20260506182803 68 230 7.8 15.6 0.00 0.00 0.00 53 1007.2
20260506182603 68 233 7.0 15.6 0.00 0.00 0.00 53 1007.3
20260506182403 68 234 7.0 15.6 0.00 0.00 0.00 52 1007.3
20260506182203 68 234 7.8 14.8 0.00 0.00 0.00 52 1007.3
20260506181803 68 233 8.7 17.4 0.00 0.00 0.00 52 1007.3
20260506181603 69 238 9.6 18.2 0.00 0.00 0.00 51 1007.4
20260506181403 69 234 10.4 18.2 0.00 0.00 0.00 51 1007.4
20260506181203 69 228 11.3 18.2 0.00 0.00 0.00 51 1007.2
20260506181003 69 226 11.3 18.2 0.00 0.00 0.00 51 1007.3
20260506180603 69 219 11.3 18.2 0.00 0.00 0.00 51 1007.5
20260506180403 69 222 8.7 18.2 0.00 0.00 0.00 51 1007.3
20260506180203 69 221 8.7 18.2 0.00 0.00 0.00 51 1007.3
20260506175803 69 223 8.7 16.5 0.00 0.00 0.00 50 1007.4
20260506175603 69 224 9.6 18.2 0.00 0.00 0.00 50 1007.3
20260506175403 69 221 10.4 18.2 0.00 0.00 0.00 50 1007.5
20260506175003 70 223 9.6 18.2 0.00 0.00 0.00 50 1007.4
20260506174603 70 221 9.6 18.2 0.00 0.00 0.00 50 1007.3
20260506174403 70 226 9.6 19.1 0.00 0.00 0.00 50 1007.3
20260506174203 70 221 9.6 19.1 0.00 0.00 0.00 50 1007.3
20260506174003 70 218 9.6 19.1 0.00 0.00 0.00 50 1007.4
20260506173803 70 220 9.6 19.1 0.00 0.00 0.00 50 1007.2
20260506173603 70 222 8.7 19.1 0.00 0.00 0.00 50 1007.4
20260506173403 70 218 8.7 16.5 0.00 0.00 0.00 50 1007.4
20260506172803 70 220 7.8 16.5 0.00 0.00 0.00 49 1007.1
20260506172603 70 218 7.8 17.4 0.00 0.00 0.00 49 1007.1
20260506172403 70 217 8.7 17.4 0.00 0.00 0.00 49 1006.9
20260506171603 70 217 10.4 18.2 0.00 0.00 0.00 49 1007.1
20260506171403 70 222 10.4 18.2 0.00 0.00 0.00 49 1007.1
20260506171203 71 228 10.4 18.2 0.00 0.00 0.00 48 1007.1
20260506171003 71 222 10.4 18.2 0.00 0.00 0.00 48 1007.1
20260506170803 71 227 10.4 18.2 0.00 0.00 0.00 48 1007.1
20260506170603 71 226 10.4 18.2 0.00 0.00 0.00 48 1007.2
20260506170403 71 226 9.6 18.2 0.00 0.00 0.00 48 1007.3
20260506170003 71 229 8.7 18.2 0.00 0.00 0.00 48 1007.3
20260506165803 71 220 9.6 18.2 0.00 0.00 0.00 48 1006.9
20260506165603 71 219 10.4 18.2 0.00 0.00 0.00 48 1007.1
20260506165403 71 220 9.6 18.2 0.00 0.00 0.00 48 1007.2
20260506165203 71 222 9.6 18.2 0.00 0.00 0.00 47 1007.3
20260506165003 71 223 9.6 18.2 0.00 0.00 0.00 47 1007.3
20260506164803 71 224 8.7 20.0 0.00 0.00 0.00 47 1006.9
20260506164403 71 224 8.7 21.7 0.00 0.00 0.00 47 1007.1
20260506164003 71 219 11.3 21.7 0.00 0.00 0.00 47 1007.1
20260506163803 71 217 13.0 21.7 0.00 0.00 0.00 47 1007.1
20260506163603 71 213 13.0 21.7 0.00 0.00 0.00 47 1007.1
20260506163403 71 210 13.0 21.7 0.00 0.00 0.00 46 1006.9
20260506163203 71 210 12.2 20.9 0.00 0.00 0.00 46 1007.1
20260506163003 71 212 12.2 20.9 0.00 0.00 0.00 46 1007.3
20260506162803 71 214 12.2 20.9 0.00 0.00 0.00 46 1006.9
20260506162603 71 210 11.3 20.9 0.00 0.00 0.00 46 1007.1
20260506162403 71 211 10.4 20.9 0.00 0.00 0.00 46 1007.1
20260506162203 71 217 11.3 20.9 0.00 0.00 0.00 46 1006.9
20260506162003 72 221 11.3 20.9 0.00 0.00 0.00 45 1007.2
20260506161803 72 226 11.3 20.9 0.00 0.00 0.00 45 1007.2
20260506161603 72 233 10.4 20.9 0.00 0.00 0.00 45 1007.1
20260506161203 72 232 11.3 20.9 0.00 0.00 0.00 45 1007.1
20260506161003 72 224 10.4 20.0 0.00 0.00 0.00 45 1006.9
20260506160803 72 226 11.3 21.7 0.00 0.00 0.00 45 1007.1
20260506160603 72 225 10.4 21.7 0.00 0.00 0.00 45 1007.2
20260506160403 72 224 11.3 21.7 0.00 0.00 0.00 45 1006.8
20260506160203 72 224 10.4 21.7 0.00 0.00 0.00 45 1006.9
20260506160003 72 227 10.4 21.7 0.00 0.00 0.00 44 1006.8
20260506155803 72 225 10.4 21.7 0.00 0.00 0.00 44 1007.2
20260506155603 72 220 12.2 22.6 0.00 0.00 0.00 44 1007.1
20260506155403 72 219 12.2 22.6 0.00 0.00 0.00 44 1007.1
20260506155003 72 220 12.2 22.6 0.00 0.00 0.00 44 1007.2
20260506154603 73 221 12.2 22.6 0.00 0.00 0.00 44 1007.2
20260506154403 73 224 11.3 21.7 0.00 0.00 0.00 43 1007.3
20260506154203 73 227 12.2 21.7 0.00 0.00 0.00 43 1007.4
20260506154003 73 230 12.2 21.7 0.00 0.00 0.00 43 1007.4
20260506153803 73 231 13.0 21.7 0.00 0.00 0.00 43 1007.3
20260506153603 73 229 13.0 21.7 0.00 0.00 0.00 43 1007.3
20260506153403 73 226 13.0 22.6 0.00 0.00 0.00 43 1007.3
20260506153203 73 223 13.9 22.6 0.00 0.00 0.00 43 1007.2
20260506153003 73 223 13.0 24.3 0.00 0.00 0.00 43 1007.3
20260506152803 73 227 13.0 24.3 0.00 0.00 0.00 42 1007.1
20260506152603 73 234 12.2 24.3 0.00 0.00 0.00 42 1007.2
20260506152203 74 236 11.3 24.3 0.00 0.00 0.00 41 1007.2
20260506152003 74 232 11.3 24.3 0.00 0.00 0.00 41 1006.9
20260506151803 74 235 10.4 20.9 0.00 0.00 0.00 41 1007.1
20260506151603 74 234 11.3 20.9 0.00 0.00 0.00 41 1006.9
20260506151403 75 235 11.3 23.5 0.00 0.00 0.00 40 1006.9
20260506151203 74 238 12.2 25.2 0.00 0.00 0.00 40 1006.9
20260506150803 75 235 12.2 25.2 0.00 0.00 0.00 39 1006.9
20260506150603 74 233 12.2 25.2 0.00 0.00 0.00 40 1006.9
20260506150403 74 233 13.0 25.2 0.00 0.00 0.00 40 1007.2
20260506150203 75 230 12.2 25.2 0.00 0.00 0.00 40 1006.9
20260506150003 75 229 10.4 24.3 0.00 0.00 0.00 40 1007.3
20260506145803 75 228 11.3 24.3 0.00 0.00 0.00 40 1007.2
20260506145603 75 227 11.3 21.7 0.00 0.00 0.00 40 1007.2
20260506145203 75 230 10.4 21.7 0.00 0.00 0.00 40 1007.1
20260506145003 75 231 11.3 21.7 0.00 0.00 0.00 40 1007.2
20260506144803 75 227 11.3 21.7 0.00 0.00 0.00 40 1007.3
20260506144603 75 226 10.4 21.7 0.00 0.00 0.00 40 1007.1
20260506144403 75 227 10.4 22.6 0.00 0.00 0.00 40 1007.1
20260506144203 75 227 11.3 22.6 0.00 0.00 0.00 40 1007.3
20260506144003 75 228 11.3 22.6 0.00 0.00 0.00 40 1007.2
20260506143803 75 226 11.3 22.6 0.00 0.00 0.00 41 1007.4
20260506143603 74 226 11.3 22.6 0.00 0.00 0.00 41 1007.3
20260506143403 75 227 12.2 22.6 0.00 0.00 0.00 40 1007.1
20260506143203 75 222 11.3 20.0 0.00 0.00 0.00 40 1007.4
20260506143003 75 223 11.3 25.2 0.00 0.00 0.00 40 1007.3
20260506142803 75 229 11.3 25.2 0.00 0.00 0.00 41 1007.4
20260506142603 75 231 12.2 25.2 0.00 0.00 0.00 41 1007.3
20260506142403 75 224 12.2 25.2 0.00 0.00 0.00 40 1007.2
20260506142203 75 227 13.0 25.2 0.00 0.00 0.00 40 1007.4
20260506142003 75 230 13.0 25.2 0.00 0.00 0.00 40 1007.3
20260506141803 75 232 12.2 21.7 0.00 0.00 0.00 41 1007.3
20260506141603 75 232 13.0 23.5 0.00 0.00 0.00 40 1007.3
20260506141403 75 242 13.0 27.8 0.00 0.00 0.00 40 1007.4
20260506141203 76 248 13.0 27.8 0.00 0.00 0.00 40 1007.3
20260506141003 75 251 11.3 27.8 0.00 0.00 0.00 40 1007.5
20260506140803 75 247 11.3 27.8 0.00 0.00 0.00 40 1007.6
20260506140603 75 243 11.3 27.8 0.00 0.00 0.00 39 1007.2
20260506140403 75 238 13.0 27.8 0.00 0.00 0.00 39 1007.4
20260506140203 75 229 12.2 21.7 0.00 0.00 0.00 39 1007.5
20260506140003 75 220 13.0 24.3 0.00 0.00 0.00 39 1007.3
20260506135003 76 238 12.2 26.1 0.00 0.00 0.00 39 1007.4
20260506134803 76 239 12.2 30.4 0.00 0.00 0.00 39 1007.4
20260506134603 75 242 12.2 30.4 0.00 0.00 0.00 39 1007.5
20260506134403 75 242 13.0 30.4 0.00 0.00 0.00 39 1007.5
20260506134203 75 240 12.2 30.4 0.00 0.00 0.00 39 1007.6
20260506134003 75 237 12.2 30.4 0.00 0.00 0.00 38 1007.3
20260506133803 76 233 12.2 30.4 0.00 0.00 0.00 39 1007.4
20260506133603 75 233 12.2 25.2 0.00 0.00 0.00 40 1007.6
20260506133403 75 238 12.2 24.3 0.00 0.00 0.00 39 1007.6
20260506133203 76 235 11.3 24.3 0.00 0.00 0.00 38 1007.8
20260506133003 76 236 11.3 21.7 0.00 0.00 0.00 39 1007.8
20260506132803 75 239 11.3 20.0 0.00 0.00 0.00 38 1007.5
20260506132603 76 233 9.6 20.0 0.00 0.00 0.00 38 1007.7
20260506132403 76 229 10.4 20.9 0.00 0.00 0.00 39 1007.6
20260506132203 75 226 10.4 20.9 0.00 0.00 0.00 41 1007.6
20260506132003 74 226 11.3 20.9 0.00 0.00 0.00 41 1007.7
20260506131803 74 220 12.2 20.9 0.00 0.00 0.00 41 1007.7
20260506131603 74 219 13.0 24.3 0.00 0.00 0.00 41 1007.7
20260506131003 74 209 13.0 24.3 0.00 0.00 0.00 41 1007.9
20260506130803 74 213 13.0 24.3 0.00 0.00 0.00 41 1007.8
20260506130603 75 211 13.0 24.3 0.00 0.00 0.00 40 1007.5
20260506130403 75 219 12.2 21.7 0.00 0.00 0.00 39 1007.6
20260506130203 75 221 11.3 24.3 0.00 0.00 0.00 39 1007.5
20260506130003 76 224 12.2 24.3 0.00 0.00 0.00 38 1007.8
20260506125803 76 225 13.0 24.3 0.00 0.00 0.00 39 1007.6
20260506125603 75 232 13.9 24.3 0.00 0.00 0.00 39 1007.5
20260506125403 75 229 13.9 24.3 0.00 0.00 0.00 40 1007.4
20260506125203 75 234 13.9 24.3 0.00 0.00 0.00 39 1007.6
20260506124803 76 234 11.3 20.9 0.00 0.00 0.00 39 1007.5
20260506124403 76 229 10.4 20.9 0.00 0.00 0.00 39 1007.5
20260506124203 76 227 11.3 19.1 0.00 0.00 0.00 39 1007.7
20260506124003 76 224 10.4 19.1 0.00 0.00 0.00 39 1007.7
20260506123803 76 221 10.4 21.7 0.00 0.00 0.00 38 1007.5
20260506123603 76 217 11.3 21.7 0.00 0.00 0.00 39 1007.6
20260506123403 76 214 11.3 21.7 0.00 0.00 0.00 38 1007.6
20260506123203 76 215 10.4 21.7 0.00 0.00 0.00 39 1007.4
20260506123003 76 218 10.4 21.7 0.00 0.00 0.00 38 1007.4
20260506122803 76 219 10.4 21.7 0.00 0.00 0.00 38 1007.6
20260506122403 76 223 10.4 20.9 0.00 0.00 0.00 37 1007.5
20260506122203 76 222 10.4 18.2 0.00 0.00 0.00 38 1007.6
20260506122003 76 222 10.4 18.2 0.00 0.00 0.00 37 1007.4
20260506121803 76 223 9.6 20.0 0.00 0.00 0.00 37 1007.7
20260506121603 76 231 9.6 24.3 0.00 0.00 0.00 37 1007.6
20260506121403 76 233 10.4 24.3 0.00 0.00 0.00 37 1007.6
20260506121003 76 231 12.2 24.3 0.00 0.00 0.00 36 1007.8
20260506120803 76 226 12.2 24.3 0.00 0.00 0.00 35 1007.9
20260506120603 77 216 12.2 24.3 0.00 0.00 0.00 35 1007.6
20260506120403 77 209 12.2 23.5 0.00 0.00 0.00 36 1007.4
20260506120203 76 209 12.2 20.0 0.00 0.00 0.00 36 1007.7
20260506120003 76 204 11.3 20.0 0.00 0.00 0.00 36 1007.7
20260506115803 76 211 10.4 20.0 0.00 0.00 0.00 36 1007.6
20260506115603 77 216 11.3 20.0 0.00 0.00 0.00 36 1007.6
20260506115403 77 222 11.3 20.0 0.00 0.00 0.00 36 1007.8
20260506115203 77 223 10.4 18.2 0.00 0.00 0.00 36 1007.9
20260506115003 76 224 10.4 21.7 0.00 0.00 0.00 36 1007.9
20260506114603 76 218 10.4 21.7 0.00 0.00 0.00 37 1008.1
20260506114404 76 216 11.3 21.7 0.00 0.00 0.00 37 1008.0
20260506114203 76 214 10.4 21.7 0.00 0.00 0.00 36 1008.2
20260506114003 76 218 10.4 21.7 0.00 0.00 0.00 37 1008.0
20260506113803 75 218 10.4 20.0 0.00 0.00 0.00 37 1008.0
20260506113603 75 217 10.4 19.1 0.00 0.00 0.00 38 1008.0
20260506113403 76 217 10.4 19.1 0.00 0.00 0.00 37 1008.2
20260506113203 76 217 10.4 20.0 0.00 0.00 0.00 37 1008.4
20260506113003 76 213 10.4 20.0 0.00 0.00 0.00 38 1008.1
20260506112603 75 225 9.6 20.0 0.00 0.00 0.00 38 1008.3
20260506112403 75 223 9.6 20.0 0.00 0.00 0.00 38 1008.2
20260506112003 76 228 8.7 18.2 0.00 0.00 0.00 37 1008.5
20260506111803 76 220 9.6 18.2 0.00 0.00 0.00 38 1008.3
20260506111603 75 211 10.4 18.2 0.00 0.00 0.00 38 1008.4
20260506111203 74 218 9.6 17.4 0.00 0.00 0.00 39 1008.3
20260506111003 75 216 10.4 17.4 0.00 0.00 0.00 38 1008.5
20260506110803 75 221 10.4 17.4 0.00 0.00 0.00 40 1008.4
20260506110603 74 229 9.6 16.5 0.00 0.00 0.00 40 1008.6
20260506110403 74 232 9.6 16.5 0.00 0.00 0.00 40 1008.5
20260506110203 74 233 10.4 16.5 0.00 0.00 0.00 40 1008.5
20260506110003 75 240 9.6 17.4 0.00 0.00 0.00 39 1008.5
20260506105603 75 235 8.7 18.2 0.00 0.00 0.00 40 1008.6
20260506105403 75 231 8.7 18.2 0.00 0.00 0.00 40 1008.6
20260506104803 74 233 9.6 18.2 0.00 0.00 0.00 39 1008.6
20260506104603 74 235 8.7 18.2 0.00 0.00 0.00 38 1008.7
20260506104403 74 237 8.7 16.5 0.00 0.00 0.00 38 1008.6
20260506104203 75 232 8.7 16.5 0.00 0.00 0.00 38 1008.8
20260506104003 74 225 7.0 13.9 0.00 0.00 0.00 41 1008.8
20260506103803 74 225 7.0 14.8 0.00 0.00 0.00 40 1008.9
20260506103603 74 215 7.0 15.6 0.00 0.00 0.00 42 1008.8
20260506103403 74 213 7.0 15.6 0.00 0.00 0.00 43 1009.0
20260506103203 74 210 6.1 15.6 0.00 0.00 0.00 42 1008.8
20260506103003 73 207 6.1 15.6 0.00 0.00 0.00 43 1008.8
20260506102803 73 197 6.1 15.6 0.00 0.00 0.00 44 1008.8
20260506102603 74 195 6.1 15.6 0.00 0.00 0.00 42 1008.9
20260506102203 73 193 6.1 13.0 0.00 0.00 0.00 42 1008.9
20260506102003 73 198 6.1 15.6 0.00 0.00 0.00 42 1008.8
20260506101603 73 210 7.8 16.5 0.00 0.00 0.00 41 1009.3
20260506101403 72 209 7.8 16.5 0.00 0.00 0.00 43 1009.2
20260506101203 71 216 7.0 16.5 0.00 0.00 0.00 45 1009.1
20260506101003 72 214 7.0 16.5 0.00 0.00 0.00 44 1009.2
20260506100803 72 214 7.0 16.5 0.00 0.00 0.00 44 1009.1
20260506100603 73 214 6.1 15.6 0.00 0.00 0.00 43 1009.3
20260506100203 73 211 5.2 15.6 0.00 0.00 0.00 43 1009.3
20260506100003 73 207 5.2 15.6 0.00 0.00 0.00 44 1009.3
20260506095803 72 212 5.2 15.6 0.00 0.00 0.00 45 1009.3
20260506095603 72 209 6.1 17.4 0.00 0.00 0.00 45 1009.6
20260506095403 72 209 7.0 17.4 0.00 0.00 0.00 45 1009.5
20260506095203 71 210 7.8 17.4 0.00 0.00 0.00 47 1009.4
20260506095003 72 214 8.7 17.4 0.00 0.00 0.00 46 1009.6
20260506094603 71 213 8.7 17.4 0.00 0.00 0.00 46 1009.6
20260506094403 71 219 9.6 16.5 0.00 0.00 0.00 46 1009.6
20260506094203 72 215 9.6 16.5 0.00 0.00 0.00 46 1009.4
20260506094003 71 216 9.6 16.5 0.00 0.00 0.00 46 1009.6
20260506093403 71 223 8.7 14.8 0.00 0.00 0.00 46 1009.6
20260506093203 72 230 8.7 14.8 0.00 0.00 0.00 46 1009.6
20260506093003 71 233 7.8 18.2 0.00 0.00 0.00 48 1009.7
20260506092803 72 228 7.8 18.2 0.00 0.00 0.00 47 1009.6
20260506092603 71 230 7.0 18.2 0.00 0.00 0.00 48 1009.7
20260506092403 71 228 7.0 18.2 0.00 0.00 0.00 48 1009.6
20260506092003 72 221 7.0 18.2 0.00 0.00 0.00 46 1009.6
20260506091803 72 214 5.2 14.8 0.00 0.00 0.00 47 1009.7
20260506091603 71 210 5.2 14.8 0.00 0.00 0.00 47 1009.7
20260506091203 72 191 4.3 14.8 0.00 0.00 0.00 47 1009.8
20260506091003 71 174 4.3 12.2 0.00 0.00 0.00 46 1009.6
20260506090803 71 165 4.3 10.4 0.00 0.00 0.00 47 1009.8
20260506090603 71 159 4.3 11.3 0.00 0.00 0.00 48 1009.6
20260506090208 70 163 4.3 11.3 0.00 0.00 0.00 49 1009.8
20260506090022 70 178 4.3 11.3 0.00 0.00 0.00 48 1009.6
20260506085803 71 183 4.3 11.3 0.00 0.00 0.00 48 1009.9
20260506085603 71 192 4.3 11.3 0.00 0.00 0.00 47 1009.6
20260506085404 71 211 4.3 10.4 0.00 0.00 0.00 46 1009.8
20260506085208 70 207 5.2 10.4 0.00 0.00 0.00 47 1009.6
20260506085003 70 204 5.2 10.4 0.00 0.00 0.00 49 1009.6
20260506084603 70 224 4.3 9.6 0.00 0.00 0.00 48 1009.4
20260506084403 71 222 4.3 10.4 0.00 0.00 0.00 48 1009.6
20260506084003 71 220 3.5 10.4 0.00 0.00 0.00 47 1009.6
20260506083803 71 194 3.5 13.0 0.00 0.00 0.00 48 1009.5
20260506083603 69 171 3.5 13.0 0.00 0.00 0.00 50 1009.5
20260506083403 70 177 3.5 13.0 0.00 0.00 0.00 49 1009.6
20260506083203 69 189 3.5 13.0 0.00 0.00 0.00 50 1009.5
20260506083003 69 191 3.5 13.0 0.00 0.00 0.00 50 1009.5
20260506082803 70 206 4.3 13.0 0.00 0.00 0.00 49 1009.6
20260506082603 70 219 3.5 11.3 0.00 0.00 0.00 49 1009.5
20260506082403 70 189 3.5 10.4 0.00 0.00 0.00 49 1009.5
20260506082203 69 171 2.6 8.7 0.00 0.00 0.00 51 1009.7
20260506082003 69 158 3.5 8.7 0.00 0.00 0.00 50 1009.5
20260506081803 69 162 3.5 8.7 0.00 0.00 0.00 51 1009.6
20260506081603 68 168 3.5 8.7 0.00 0.00 0.00 51 1009.6
20260506081403 68 185 3.5 8.7 0.00 0.00 0.00 52 1009.6
20260506081003 68 158 3.5 8.7 0.00 0.00 0.00 53 1009.6
20260506080803 68 156 3.5 8.7 0.00 0.00 0.00 53 1009.7
20260506080603 68 154 3.5 8.7 0.00 0.00 0.00 53 1009.7
20260506080403 68 168 3.5 8.7 0.00 0.00 0.00 53 1009.5
20260506080203 69 186 3.5 8.7 0.00 0.00 0.00 53 1009.7
20260506073403 66 241 3.5 10.4 0.00 0.00 0.00 56 1009.6
20260506073203 66 240 4.3 10.4 0.00 0.00 0.00 55 1009.8
20260506073003 66 238 4.3 10.4 0.00 0.00 0.00 55 1009.6
20260506072603 67 246 3.5 8.7 0.00 0.00 0.00 56 1009.8
20260506072403 66 244 3.5 8.7 0.00 0.00 0.00 58 1009.8
20260506072203 66 249 3.5 8.7 0.00 0.00 0.00 57 1009.8
20260506072003 66 247 3.5 8.7 0.00 0.00 0.00 58 1009.7
20260506071803 66 250 2.6 7.0 0.00 0.00 0.00 56 1009.7
20260506071603 65 251 3.5 7.8 0.00 0.00 0.00 57 1009.8
20260506071403 65 254 3.5 7.8 0.00 0.00 0.00 58 1009.8
20260506071203 65 249 3.5 7.8 0.00 0.00 0.00 60 1009.8
20260506071003 64 250 3.5 7.8 0.00 0.00 0.00 59 1009.8
20260506070603 64 249 4.3 9.6 0.00 0.00 0.00 59 1009.9
20260506070403 63 246 3.5 9.6 0.00 0.00 0.00 61 1009.8
20260506070203 64 246 3.5 9.6 0.00 0.00 0.00 60 1009.7
20260506062403 63 255 2.6 6.1 0.00 0.00 0.00 63 1009.8
20260506062203 62 247 2.6 5.2 0.00 0.00 0.00 63 1010.0
20260506062003 62 253 2.6 5.2 0.00 0.00 0.00 64 1009.7
20260506061803 61 250 2.6 6.1 0.00 0.00 0.00 65 1009.9
20260506061603 62 239 2.6 6.1 0.00 0.00 0.00 64 1009.7
20260506061403 62 241 2.6 6.1 0.00 0.00 0.00 65 1009.6
20260506061203 61 246 2.6 6.1 0.00 0.00 0.00 66 1009.8
20260506061003 61 246 2.6 6.1 0.00 0.00 0.00 66 1009.7
20260506060803 61 253 2.6 6.1 0.00 0.00 0.00 65 1009.9
20260506060603 61 271 2.6 5.2 0.00 0.00 0.00 66 1009.8
20260506060203 61 275 2.6 6.1 0.00 0.00 0.00 67 1009.7
20260506051403 57 230 3.5 7.0 0.00 0.00 0.00 74 1009.7
20260506051203 57 230 3.5 7.0 0.00 0.00 0.00 75 1009.9
20260506051003 57 245 3.5 7.0 0.00 0.00 0.00 75 1009.9
20260506050803 57 249 3.5 7.0 0.00 0.00 0.00 75 1009.8
20260506050603 57 258 2.6 6.1 0.00 0.00 0.00 75 1009.7
20260506050403 57 250 2.6 7.0 0.00 0.00 0.00 75 1009.7
20260506050203 56 254 3.5 7.8 0.00 0.00 0.00 76 1009.6
20260506045003 56 250 3.5 7.8 0.00 0.00 0.00 77 1009.6
20260506044803 55 262 2.6 5.2 0.00 0.00 0.00 78 1009.7
20260506044603 55 264 2.6 6.1 0.00 0.00 0.00 78 1009.5
20260506044203 55 242 3.5 7.0 0.00 0.00 0.00 78 1009.6
20260506043803 55 226 4.3 7.8 0.00 0.00 0.00 78 1009.7
20260506043603 55 223 5.2 7.8 0.00 0.00 0.00 78 1009.5
20260506043403 55 223 4.3 8.7 0.00 0.00 0.00 78 1009.5
20260506043203 55 223 4.3 8.7 0.00 0.00 0.00 78 1009.7
20260506043003 55 225 4.3 8.7 0.00 0.00 0.00 78 1009.5
20260506042803 55 225 3.5 8.7 0.00 0.00 0.00 78 1009.5
20260506042403 55 223 2.6 8.7 0.00 0.00 0.00 78 1009.5
20260506042203 55 218 2.6 7.8 0.00 0.00 0.00 78 1009.3
20260506041803 55 216 3.5 7.8 0.00 0.00 0.00 78 1009.6
20260506041604 55 208 4.3 7.8 0.00 0.00 0.00 78 1009.5
20260506041403 55 206 4.3 7.8 0.00 0.00 0.00 78 1009.6
20260506041203 55 210 5.2 7.8 0.00 0.00 0.00 78 1009.3
20260506041003 55 210 4.3 7.8 0.00 0.00 0.00 78 1009.3
20260506040603 55 219 5.2 7.8 0.00 0.00 0.00 78 1009.2
20260506035803 55 226 5.2 8.7 0.00 0.00 0.00 78 1009.2
20260506035603 55 225 5.2 8.7 0.00 0.00 0.00 78 1009.3